Weather History for KCTY - March, 2013

Change the Weather History Date:

Tuesday, March 19, 2013

  Actual Average Record
Temperature  
Mean Temperature 70 °F 63 °F  
Max Temperature 82 °F 77 °F 88 °F (2011)
Min Temperature 57 °F 49 °F 32 °F (2005)
Degree Days  
Heating Degree Days 0 4  
Month to date heating degree days 184 99  
Since 1 July heating degree days 994 1219  
Cooling Degree Days 5 2  
Month to date cooling degree days 11 20  
Year to date cooling degree days 107 47  
Growing Degree Days 20 (Base 50)    
Moisture  
Dew Point 59 °F    
Average Humidity 72    
Maximum Humidity 93    
Minimum Humidity 45    
Precipitation  
Precipitation 0.24 in 0.14 in 2.43 in (1998)
Month to date precipitation 0.52 2.55  
Year to date precipitation 4.03 9.86  
Sea Level Pressure  
Sea Level Pressure 29.98 in    
Wind  
Wind Speed 5 mph (NW)    
Max Wind Speed 21 mph    
Max Gust Speed 26 mph    
T = Trace of Precipitation, MM = Missing Value Source: NWS Daily Summary

Daily Weather History Graph

Daily Weather History Graph

Search for Another Location

Airport or City:

Trip Planner

Search our weather history database for the weather conditions in past years. The results will help you decide how hot, cold, wet, or windy it might be!

Date:

Astronomy

Mar. 19, 2013 Rise Set
Actual Time 7:37 AM EDT 7:43 PM EDT
Civil Twilight 7:13 AM EDT 8:07 PM EDT
Nautical Twilight 6:45 AM EDT 8:34 PM EDT
Astronomical Twilight 6:17 AM EDT 9:02 PM EDT
Moon 12:50 PM EDT (3/19) 2:05 AM EDT (3/19)
Length of Visible Light 12h 53m
Length of Day
12h 06m
Waxing Crescent, 49% of the Moon is Illuminated
Mar 19
Waxing Crescent
Mar 19
First Quarter
Mar 27
Full
Apr 3
Last Quarter
Apr 10
New

Hourly Weather History & Observations

Time (EDT) Temp. Heat Index Dew Point Humidity Pressure Visibility Wind Dir Wind Speed Gust Speed Precip Events Conditions
12:53 AM 60.1 °F - 57.9 °F 93% 29.96 in - Calm Calm - N/A   Unknown
1:53 AM 61.0 °F - 57.9 °F 90% 29.98 in - North 4.6 mph - N/A   Unknown
2:53 AM 63.0 °F - 60.1 °F 90% 30.00 in - NNE 11.5 mph - N/A   Unknown
3:53 AM 63.0 °F - 57.9 °F 84% 29.94 in - Variable 3.5 mph - N/A   Unknown
4:53 AM 59.0 °F - 55.9 °F 90% 29.91 in - Calm Calm - N/A   Unknown
5:53 AM 57.9 °F - 55.9 °F 93% 29.95 in - Calm Calm - N/A   Unknown
6:53 AM 62.1 °F - 57.0 °F 84% 30.01 in - NE 8.1 mph - 0.01 in   Unknown
7:53 AM 61.0 °F - 57.9 °F 90% 29.99 in - Calm Calm - N/A   Unknown
8:53 AM 62.1 °F - 57.9 °F 86% 29.97 in - SE 4.6 mph - N/A   Unknown
9:53 AM 63.0 °F - 57.9 °F 84% 30.04 in - WNW 18.4 mph - N/A   Unknown
10:53 AM 66.0 °F - 62.1 °F 87% 30.03 in - South 4.6 mph - 0.23 in   Unknown
11:53 AM 72.0 °F - 62.1 °F 71% 30.02 in - WSW 3.5 mph - N/A   Unknown
12:53 PM 77.0 °F - 57.0 °F 50% 30.01 in - North 8.1 mph - N/A   Unknown
1:53 PM 80.1 °F 80.6 °F 57.9 °F 47% 29.99 in - Variable 5.8 mph - N/A   Unknown
2:53 PM 80.1 °F 80.4 °F 57.0 °F 45% 29.97 in - Variable 4.6 mph - N/A   Unknown
3:53 PM 80.1 °F 80.6 °F 57.9 °F 47% 29.94 in - Variable 5.8 mph - N/A   Unknown
4:53 PM 80.1 °F 80.7 °F 59.0 °F 48% 29.94 in - NNW 3.5 mph - N/A   Unknown
5:53 PM 80.1 °F 81.1 °F 61.0 °F 52% 29.93 in - WSW 8.1 mph - N/A   Unknown
6:53 PM 75.9 °F - 60.1 °F 58% 29.94 in - WSW 5.8 mph - N/A   Unknown
7:53 PM 72.0 °F - 59.0 °F 64% 29.94 in - Calm Calm - N/A   Unknown
8:53 PM 68.0 °F - 59.0 °F 73% 29.96 in - WSW 3.5 mph - N/A   Unknown
9:53 PM 64.9 °F - 59.0 °F 81% 29.98 in - Calm Calm - N/A   Unknown
10:53 PM 66.0 °F - 59.0 °F 78% 30.00 in - NW 3.5 mph - N/A   Unknown
11:53 PM 66.0 °F - 59.0 °F 78% 30.00 in - NNW 4.6 mph - N/A   Unknown